Showing default

YAOGAN 1, 29092

Orbit data source: Space-Track

YAOGAN 1, 29092 is a payload satellite owned by PLA GAD (CN) in SSO that was launched on Wed, 26 Apr 2006 UTC via a CHANG ZHENG 4C launch vehicle from the Taiyaun Space Center, China (TSC). Payload-class satellites include a variety of spacecraft equipped with specific instruments for various scientific and technological missions. These include communications satellites like Starlink; space stations such as the ISS; scientific satellites like the Hubble; Earth observation satellites from companies like Planet Labs, Umbra, and HawkEye 360; GPS; miniature CubeSats for education and research; and military/defense satellites.

Loading next visibility...
Identifier
29092, 2006-015A
Orbit
SSO
Country
Flag of CNCN / PRC
Related business
Manufacturer
SAST
Mission
Civil Radar Imaging
Bus & Motor
JB-5, Unknown motor
Mass
2,700 kg wet, ~2,700 kg dry
Launch date (UTC)
2006-04-26 (20 years ago)
Launch vehicle
CHANG ZHENG 4C
Launch site
Taiyaun Space Center, China (TSC)
Object type
Payload
Rocket body
Debris
Shape & HBR
Box + 2 Pan, 4.0 m
Radar Cross Section
9.231 m², Large (>1 m²)

Expand to show TLE details & history
Last TLE update: 5 hours ago

TLE from 5 hours ago
0 YAOGAN 1
1 29092U 06015A   26071.57926060  .00001155  00000-0  13302-3 0  9999
2 29092  97.7553  94.7485 0001495  94.6546 265.4841 14.87592381 75448
Epoch: 2026-03-12T13:54Z
TLE epoch observation values (Epoch: 2026-03-12T13:54:08.115Z)
Latitude
-0.00007°
Longitude
75.98758°
Altitude
608.579 km
Speed
7.555 km/s
True Right ascension
06h 18m 59s
True Declination
0° 00' 00"
Sunlit
Object was in daylight at epoch
Visualization orbit readout
Latitude
Unknown
Longitude
Unknown
Altitude
Unknown
Speed
Unknown
Apparent Right ascension
Unknown
Apparent Declination
Unknown
Sunlit
N/A
Visualization observer readout
Local Sidereal Time
23:20:35
Azimuth
Unknown
Elevation
Unknown
Doppler factor
Unknown
Orbital elements
Apogee altitude
603.529 km
Perigee altitude
601.441 km
Semi-major axis
6,980.622 km
Eccentricity
0.00015
Inclination
97.7553°
RAAN
94.7485°
Arg. of periapsis
94.6546°
True anomaly
265.46702°
Mean anomaly
265.4841°
Eccentric anomaly
265.47556°
Mean motion
3.72136 °/min
Orbital period
96.74 mins
BSTAR
0.00013302
Loading maneuver chart data...
Computing Atmospheric mass density...
Loading historical data...
Loading historical data...
Loading historical data...
Loading historical data...
Loading historical data...
Loading historical data...
Loading historical data...

Documentation

Showing up to 5 results
|